TimeEST,TemperatureF,Dew PointF,Humidity,Sea Level PressureIn,VisibilityMPH,Wind Direction,Wind SpeedMPH,Gust SpeedMPH,PrecipitationIn,Events,Conditions,WindDirDegrees,DateUTC
12:51 AM,28.0,12.9,53,30.39,10.0,SSW,9.2,-,N/A,,Clear,210,2013-01-19 05:51:00
1:51 AM,28.4,12.2,51,30.39,10.0,SSW,8.1,-,N/A,,Clear,200,2013-01-19 06:51:00
2:51 AM,28.9,14.0,54,30.36,10.0,South,9.2,-,N/A,,Clear,190,2013-01-19 07:51:00
3:51 AM,28.9,16.0,58,30.33,10.0,SSW,11.5,-,N/A,,Clear,200,2013-01-19 08:51:00
4:51 AM,28.9,17.1,61,30.32,10.0,SSW,10.4,-,N/A,,Mostly Cloudy,210,2013-01-19 09:51:00
5:51 AM,30.0,18.0,61,30.32,10.0,SSW,8.1,-,N/A,,Mostly Cloudy,210,2013-01-19 10:51:00
6:51 AM,30.9,19.9,64,30.30,10.0,SSW,10.4,-,N/A,,Clear,210,2013-01-19 11:51:00
7:51 AM,32.0,21.0,64,30.29,10.0,SSW,11.5,-,N/A,,Partly Cloudy,210,2013-01-19 12:51:00
8:51 AM,34.0,23.0,64,30.29,10.0,SW,11.5,-,N/A,,Clear,220,2013-01-19 13:51:00
9:51 AM,37.0,25.0,62,30.26,10.0,SSW,17.3,-,N/A,,Clear,210,2013-01-19 14:51:00
10:51 AM,39.9,25.0,55,30.23,10.0,SW,17.3,21.9,N/A,,Clear,220,2013-01-19 15:51:00
11:51 AM,45.0,26.1,48,30.17,10.0,SSW,18.4,24.2,N/A,,Clear,210,2013-01-19 16:51:00
12:51 PM,46.0,26.1,46,30.12,10.0,SSW,17.3,21.9,N/A,,Clear,210,2013-01-19 17:51:00
1:51 PM,48.0,26.1,42,30.10,10.0,SSW,11.5,-,N/A,,Clear,210,2013-01-19 18:51:00
2:51 PM,50.0,24.1,36,30.07,10.0,SW,15.0,25.3,N/A,,Clear,230,2013-01-19 19:51:00
3:51 PM,50.0,25.0,38,30.05,10.0,SW,16.1,-,N/A,,Clear,220,2013-01-19 20:51:00
4:51 PM,48.9,24.1,38,30.04,10.0,SSW,13.8,-,N/A,,Scattered Clouds,210,2013-01-19 21:51:00
5:51 PM,46.0,27.0,47,30.03,10.0,SSW,8.1,-,N/A,,Clear,200,2013-01-19 22:51:00
6:51 PM,46.9,27.0,46,30.03,10.0,SSW,12.7,-,N/A,,Clear,210,2013-01-19 23:51:00
7:51 PM,45.0,28.0,52,30.01,10.0,SSW,12.7,-,N/A,,Clear,210,2013-01-20 00:51:00
8:51 PM,44.1,28.0,53,29.99,10.0,SSW,9.2,-,N/A,,Clear,210,2013-01-20 01:51:00
9:51 PM,44.1,28.0,53,29.98,10.0,SSW,12.7,-,N/A,,Clear,200,2013-01-20 02:51:00
10:51 PM,44.1,28.0,53,29.95,10.0,SSW,10.4,-,N/A,,Clear,200,2013-01-20 03:51:00
11:51 PM,43.0,28.0,56,29.92,10.0,SSW,11.5,-,N/A,,Clear,200,2013-01-20 04:51:00